When you browse on this site, cookies collect data to enhance your experience and personalize the content and advertising you see.
Visit our Privacy Policy to learn more. By continuing to use the site, you agree to this use of cookies and data.
  • En España
  • Lista de países
  • Para 7 días
  • Temperatura del agua
  • El tiempo en el mapa
  • Informadores
  • user-avatar
    Iniciar sesión

    Tiempo cada hora Almaty

    Hoy, 15 Noviembre, Viernes

    Tiempo Temperatura Precipitaciones Viento Presión Humedad
    00:00 +6°C° 0 mm 0 mps 690 mmHg 50%
    01:00 +6°C° 0 mm 0 mps 690 mmHg 50%
    02:00 +6°C° 0 mm 0 mps 690 mmHg 50%
    03:00 +7°C° 0 mm 1 mps 690 mmHg 49%
    04:00 +7°C° 0 mm 1 mps 690 mmHg 47%
    05:00 +7°C° 0 mm 1 mps 690 mmHg 46%
    06:00 +7°C° 0 mm 1 mps 691 mmHg 46%
    07:00 +8°C° 0 mm 1 mps 691 mmHg 47%
    08:00 +8°C° 0 mm 1 mps 691 mmHg 47%
    09:00 +8°C° 0.1 mm 2 mps 691 mmHg 47%
    10:00 +8°C° 0.1 mm 2 mps 692 mmHg 47%
    11:00 +9°C° 0.1 mm 2 mps 692 mmHg 47%
    12:00 +9°C° 0.2 mm 3 mps 692 mmHg 48%
    13:00 +9°C° 0.2 mm 3 mps 692 mmHg 48%
    14:00 +9°C° 0.2 mm 3 mps 692 mmHg 49%
    15:00 +7°C° 0.1 mm 2 mps 693 mmHg 52%
    16:00 +6°C° 0.1 mm 2 mps 693 mmHg 54%
    17:00 +5°C° 0.1 mm 1 mps 694 mmHg 57%
    18:00 +5°C° 0 mm 1 mps 694 mmHg 60%
    19:00 +4°C° 0 mm 1 mps 695 mmHg 62%
    20:00 +3°C° 0 mm 1 mps 695 mmHg 64%
    21:00 +3°C° 0 mm 1 mps 696 mmHg 67%
    22:00 +2°C° 0 mm 1 mps 696 mmHg 70%
    23:00 -1°C° 0 mm 2 mps 696 mmHg 73%

    Mañana, 16 Noviembre, Sábado

    Tiempo Temperatura Precipitaciones Viento Presión Humedad
    00:00 +1°C° 0 mm 1 mps 696 mmHg 74%
    01:00 0°C° 0 mm 1 mps 696 mmHg 75%
    02:00 0°C° 0 mm 1 mps 696 mmHg 76%
    03:00 0°C° 0 mm 1 mps 696 mmHg 74%
    04:00 -1°C° 0 mm 1 mps 696 mmHg 72%
    05:00 -1°C° 0 mm 1 mps 697 mmHg 70%
    06:00 -3°C° 0 mm 2 mps 697 mmHg 66%
    07:00 -3°C° 0 mm 2 mps 697 mmHg 63%
    08:00 -2°C° 0 mm 2 mps 697 mmHg 59%
    09:00 -1°C° 0 mm 2 mps 697 mmHg 56%
    10:00 +1°C° 0 mm 2 mps 697 mmHg 53%
    11:00 +2°C° 0 mm 2 mps 697 mmHg 50%
    12:00 +4°C° 0 mm 1 mps 697 mmHg 50%
    13:00 +4°C° 0 mm 1 mps 697 mmHg 50%
    14:00 +5°C° 0 mm 1 mps 697 mmHg 50%
    15:00 +4°C° 0 mm 1 mps 697 mmHg 47%
    16:00 +3°C° 0 mm 1 mps 697 mmHg 45%
    17:00 +2°C° 0 mm 1 mps 698 mmHg 42%
    18:00 +1°C° 0 mm 2 mps 698 mmHg 41%
    19:00 +1°C° 0 mm 2 mps 698 mmHg 41%
    20:00 +1°C° 0 mm 2 mps 698 mmHg 40%
    21:00 +1°C° 0 mm 2 mps 698 mmHg 40%
    22:00 +1°C° 0 mm 2 mps 698 mmHg 40%
    23:00 +1°C° 0 mm 2 mps 698 mmHg 40%

    Pasado mañana, 17 Noviembre, Domingo

    Tiempo Temperatura Precipitaciones Viento Presión Humedad
    00:00 +1°C° 0 mm 2 mps 698 mmHg 40%
    01:00 +1°C° 0 mm 2 mps 697 mmHg 39%
    02:00 +1°C° 0 mm 2 mps 697 mmHg 39%
    03:00 +1°C° 0 mm 2 mps 697 mmHg 39%
    04:00 +1°C° 0 mm 2 mps 697 mmHg 39%
    05:00 +2°C° 0 mm 1 mps 696 mmHg 39%
    06:00 +2°C° 0 mm 1 mps 697 mmHg 40%
    07:00 +2°C° 0 mm 1 mps 697 mmHg 40%
    08:00 +3°C° 0 mm 1 mps 697 mmHg 40%
    09:00 +4°C° 0 mm 1 mps 697 mmHg 39%
    10:00 +5°C° 0 mm 1 mps 696 mmHg 38%
    11:00 +7°C° 0 mm 1 mps 696 mmHg 37%
    12:00 +7°C° 0 mm 1 mps 696 mmHg 39%
    13:00 +8°C° 0 mm 1 mps 695 mmHg 40%
    14:00 +8°C° 0 mm 1 mps 695 mmHg 41%
    15:00 +7°C° 0 mm 1 mps 695 mmHg 41%
    16:00 +6°C° 0 mm 1 mps 695 mmHg 41%
    17:00 +4°C° 0 mm 1 mps 695 mmHg 41%
    18:00 +4°C° 0 mm 1 mps 695 mmHg 40%
    19:00 +4°C° 0 mm 1 mps 695 mmHg 39%
    20:00 +3°C° 0 mm 1 mps 695 mmHg 38%
    21:00 +3°C° 0 mm 1 mps 695 mmHg 37%
    22:00 +3°C° 0 mm 1 mps 695 mmHg 37%
    23:00 +3°C° 0 mm 1 mps 695 mmHg 36%

    18 Noviembre, Lunes

    Tiempo Temperatura Precipitaciones Viento Presión Humedad
    00:00 +3°C° 0 mm 1 mps 695 mmHg 36%
    01:00 +3°C° 0 mm 1 mps 695 mmHg 35%
    02:00 +3°C° 0 mm 1 mps 695 mmHg 35%
    03:00 +3°C° 0 mm 1 mps 695 mmHg 35%
    04:00 +3°C° 0 mm 1 mps 694 mmHg 35%
    05:00 +3°C° 0 mm 1 mps 694 mmHg 35%
    06:00 +3°C° 0 mm 1 mps 694 mmHg 34%
    07:00 +4°C° 0 mm 1 mps 695 mmHg 33%
    08:00 +4°C° 0 mm 1 mps 695 mmHg 32%
    09:00 +6°C° 0 mm 1 mps 695 mmHg 31%
    10:00 +7°C° 0 mm 1 mps 695 mmHg 31%
    11:00 +8°C° 0 mm 1 mps 695 mmHg 30%
    12:00 +9°C° 0 mm 1 mps 694 mmHg 31%
    13:00 +9°C° 0 mm 1 mps 694 mmHg 32%
    14:00 +10°C° 0 mm 1 mps 694 mmHg 34%
    15:00 +9°C° 0 mm 1 mps 694 mmHg 38%
    16:00 +8°C° 0 mm 1 mps 694 mmHg 43%
    17:00 +7°C° 0 mm 1 mps 695 mmHg 48%
    18:00 +7°C° 0.1 mm 1 mps 695 mmHg 50%
    19:00 +7°C° 0.1 mm 1 mps 694 mmHg 51%
    20:00 +7°C° 0.1 mm 1 mps 694 mmHg 53%
    21:00 +7°C° 0 mm 1 mps 694 mmHg 52%
    22:00 +6°C° 0 mm 1 mps 694 mmHg 50%
    23:00 +6°C° 0 mm 1 mps 694 mmHg 49%

    19 Noviembre, Martes

    Tiempo Temperatura Precipitaciones Viento Presión Humedad
    00:00 +5°C° 0 mm 1 mps 693 mmHg 48%
    01:00 +5°C° 0 mm 1 mps 693 mmHg 47%
    02:00 +5°C° 0 mm 1 mps 693 mmHg 46%
    03:00 +4°C° 0 mm 1 mps 692 mmHg 46%
    04:00 +4°C° 0 mm 1 mps 692 mmHg 45%
    05:00 +4°C° 0 mm 1 mps 692 mmHg 45%
    06:00 +4°C° 0 mm 1 mps 692 mmHg 43%
    07:00 +5°C° 0 mm 1 mps 692 mmHg 42%
    08:00 +5°C° 0 mm 1 mps 692 mmHg 41%
    09:00 +7°C° 0 mm 1 mps 691 mmHg 40%
    10:00 +8°C° 0 mm 1 mps 691 mmHg 39%
    11:00 +9°C° 0 mm 1 mps 690 mmHg 38%
    12:00 +10°C° 0 mm 1 mps 690 mmHg 39%
    13:00 +10°C° 0 mm 1 mps 689 mmHg 39%
    14:00 +10°C° 0 mm 1 mps 689 mmHg 40%
    15:00 +9°C° 0 mm 1 mps 689 mmHg 42%
    16:00 +8°C° 0 mm 1 mps 688 mmHg 44%
    17:00 +6°C° 0 mm 1 mps 688 mmHg 46%
    18:00 +6°C° 0 mm 1 mps 688 mmHg 45%
    19:00 +6°C° 0 mm 1 mps 688 mmHg 44%
    20:00 +5°C° 0 mm 2 mps 688 mmHg 43%
    21:00 +5°C° 0 mm 2 mps 688 mmHg 42%
    22:00 +5°C° 0 mm 2 mps 688 mmHg 42%
    23:00 +5°C° 0 mm 2 mps 687 mmHg 41%

    20 Noviembre, Miércoles

    Tiempo Temperatura Precipitaciones Viento Presión Humedad
    00:00 +5°C° 0 mm 2 mps 687 mmHg 40%
    01:00 +5°C° 0 mm 2 mps 686 mmHg 40%
    02:00 +5°C° 0 mm 2 mps 686 mmHg 39%
    03:00 +4°C° 0 mm 2 mps 686 mmHg 40%
    04:00 +4°C° 0 mm 2 mps 685 mmHg 42%
    05:00 +4°C° 0 mm 2 mps 685 mmHg 43%
    06:00 +4°C° 0 mm 2 mps 685 mmHg 43%
    07:00 +5°C° 0 mm 2 mps 685 mmHg 43%
    08:00 +5°C° 0 mm 2 mps 684 mmHg 43%
    09:00 +6°C° 0 mm 2 mps 684 mmHg 41%
    10:00 +8°C° 0 mm 2 mps 684 mmHg 39%
    11:00 +9°C° 0 mm 3 mps 684 mmHg 37%
    12:00 +9°C° 0 mm 2 mps 683 mmHg 38%
    13:00 +9°C° 0 mm 2 mps 683 mmHg 39%
    14:00 +9°C° 0 mm 2 mps 682 mmHg 40%
    15:00 +8°C° 0 mm 2 mps 682 mmHg 41%
    16:00 +8°C° 0 mm 2 mps 682 mmHg 42%
    17:00 +7°C° 0 mm 2 mps 683 mmHg 43%
    18:00 +6°C° 0 mm 2 mps 683 mmHg 44%
    19:00 +6°C° 0 mm 2 mps 683 mmHg 44%
    20:00 +5°C° 0 mm 2 mps 683 mmHg 45%
    21:00 +5°C° 0 mm 2 mps 683 mmHg 46%
    22:00 +6°C° 0 mm 1 mps 683 mmHg 47%
    23:00 +6°C° 0 mm 1 mps 683 mmHg 49%
    Mostrar más